星链-2355 (STARLINK-2355 )

导读 | 星芒AI

STARLINK-2355 是 SpaceX Starlink 卫星互联网项目中的一颗低轨通信卫星。它属于 Starlink 二代星座计划的一部分,旨在提供全球范围内的高速互联网服务。该卫星采用先进设计,具备更高的带宽和更稳定的连接性能。它运行在约 550 公里的轨道高度,通过激光链路与其他卫星通信,减少地面基站依赖。STARLINK-2355 的发射有助于扩展 Starlink 网络覆盖,提升偏远地区的网络接入能力,并支持应急通信和军事应用。

基本信息
目录编号:
47895
目录名称:
STARLINK-2355
国际标识:
2021-021AM
轨道中心:
EARTH
卫星名称:
星链-2355
卫星全名:
星链-2355 (STARLINK-2355 )
卫星状态:
在轨 (已飞行1691 天)
发射日期:
2021-03-14 UTC
国别 :
美国 (US)
星等 :
--
轨道信息
数据来源 国际轨道数据
星历时间: 2025-10-30T04:58:26+0800
10小时前
查看轨道信息
半长轴: 6925.307km
偏心率: 0.0001361
轨道倾角: 53.054°
近地点辐角 92.885°
升交点赤经 138.876°
平近点角 267.230°
近地点: 546.229km
远地点: 548.115km
周期: 95.591分钟
每日圈数: 15.064136
详细信息
固有亮度:
5
最大亮度:
2.5
卫星平台:
Starlink V1.0
覆盖范围:
全球
运营商:
太空探索技术公司
运营商所在国:
美国
制造商(研发单位):
太空探索技术公司
制造商所在国:
美国
使用方式:
暂无
卫星简介
星链(Starlink)计划是由太空探索技术公司(SpaceX)提出的一个巨型低轨卫星互联网星座项目,计划在2019年至2024年间在太空搭建由约1.2万颗卫星组成的“星链”网络,其中1584颗将部署在地球上空550千米处的近地轨道,并从2020年开始工作。该卫星仍在工作。
2D轨道图
3D轨道图
轨道高度分析图
轨道倾角分析图
轨道综合分析图
查看轨道综合分析图